Melville Hall, Dominica

8:51 PM AST on March 30, 2017 (GMT -0400)
Melville Hall

Weather History for TDPD - February, 2014

Change the Weather History Date:

Wednesday, February 5, 2014

  Actual Average Record
Temperature  
Mean Temperature 77 °F -  
Max Temperature 82 °F 80 °F 86 °F (1998)
Min Temperature 72 °F 71 °F 64 °F (2005)
Cooling Degree Days 12    
Growing Degree Days 27 (Base 50)    
Moisture  
Dew Point 71 °F    
Average Humidity 74    
Maximum Humidity 83    
Minimum Humidity 62    
Precipitation  
Precipitation 0.08 in 0.15 in - ()
Sea Level Pressure  
Sea Level Pressure 29.98 in    
Wind  
Wind Speed 9 mph ()    
Max Wind Speed 13 mph    
Max Gust Speed -    
Visibility 8.6 miles    
Events Rain    
Averages and records for this station are not official NWS values.
T = Trace of Precipitation, MM = Missing Value Source: Averaged Metar Reports

Daily Weather History Graph

Daily Weather History Graph

Search for Another Location

Airport or City:

Trip Planner

Search our weather history database for the weather conditions in past years. The results will help you decide how hot, cold, wet, or windy it might be!

Date:

Astronomy

Feb. 05, 2014 Rise Set
Actual Time 6:33 AM AST 6:04 PM AST
Civil Twilight 6:11 AM AST 6:27 PM AST
Nautical Twilight 5:45 AM AST 6:52 PM AST
Astronomical Twilight 5:20 AM AST 7:18 PM AST
Moon 10:50 AM AST (2/5) 11:45 PM AST (2/5)
Length of Visible Light 12h 15m
Length of Day
11h 31m
Waxing Crescent, 38% of the Moon is Illuminated
Feb 5
Waxing Crescent
Feb 6
First Quarter
Feb 14
Full
Feb 22
Last Quarter
Mar 1
New

Hourly Weather History & Observations

Time (AST) Temp. Heat Index Dew Point Humidity Pressure Visibility Wind Dir Wind Speed Gust Speed Precip Events Conditions
6:00 AM 75.2 °F - 69.8 °F 83% 29.95 in 6.2 mi East 10.4 mph - N/A   Partly Cloudy
7:00 AM 77.0 °F - 69.8 °F 78% 29.98 in 6.2 mi East 10.4 mph - N/A   Scattered Clouds
8:00 AM 76 °F - 71 °F 79% 30.01 in 14 mi East 12.7 mph - - Rain Light Rain Showers
8:00 AM 77.0 °F - 71.6 °F 83% 30.01 in 6.2 mi East 12.7 mph - N/A   Mostly Cloudy
9:00 AM 80.6 °F 84.6 °F 71.6 °F 74% 30.01 in 6.2 mi ESE 5.8 mph - N/A   Mostly Cloudy
10:00 AM 77.0 °F - 71.6 °F 83% 30.04 in 6.2 mi East 11.5 mph - N/A   Mostly Cloudy
11:00 AM 81 °F - 71 °F 63% 30.03 in 17 mi East 11.5 mph - -   Partly Cloudy
11:00 AM 80.6 °F 83.9 °F 69.8 °F 70% 30.01 in 6.2 mi East 11.5 mph - N/A   Mostly Cloudy
12:00 PM 78.8 °F - 71.6 °F 78% 29.98 in 6.2 mi East 10.4 mph - N/A   Mostly Cloudy
1:00 PM 82.4 °F 87.2 °F 71.6 °F 70% 29.98 in 6.2 mi East 11.5 mph - N/A   Scattered Clouds
2:00 PM 82 °F - 71 °F 62% 29.96 in 17 mi East 11.5 mph - -   Partly Cloudy
2:00 PM 82.4 °F 87.2 °F 71.6 °F 70% 29.95 in 6.2 mi East 11.5 mph - N/A   Scattered Clouds
3:00 PM 80.6 °F 83.9 °F 69.8 °F 70% 29.95 in 6.2 mi East 10.4 mph - N/A   Scattered Clouds
4:00 PM 80.6 °F 83.9 °F 69.8 °F 70% 29.95 in 6.2 mi East 10.4 mph - N/A   Smoke
5:00 PM 80 °F - 70 °F 65% 29.96 in 17 mi ESE 8.1 mph - -   Mostly Cloudy
5:00 PM 78.8 °F - 69.8 °F 74% 29.95 in 6.2 mi ESE 8.1 mph - N/A   Mostly Cloudy
6:00 PM 78.8 °F - 69.8 °F 74% 29.95 in 6.2 mi ESE 5.8 mph - N/A   Mostly Cloudy
7:00 PM 77.0 °F - 69.8 °F 78% 29.98 in 6.2 mi East 11.5 mph - N/A   Mostly Cloudy
8:00 PM 78 °F - 71 °F 73% 30.00 in 16 mi East 11.5 mph - -   Partly Cloudy
8:00 PM 77.0 °F - 71.6 °F 83% 29.98 in 6.2 mi East 11.5 mph - N/A   Scattered Clouds
9:00 PM 77.0 °F - 69.8 °F 78% 30.01 in 6.2 mi East 11.5 mph - N/A   Mostly Cloudy